{"data":{"norad_id":42809,"epoch":"2026-09-19T21:27:46.975680Z","epoch_age_seconds":60166,"freshness":"FRESH","line1":"1 42809U 17039G   26262.89429370  .00000045  00000+0  90366-5 0  9990","line2":"2 42809  86.3974 314.0778 0002345  92.8947 267.2517 14.34217622483529","mean_motion":14.34217622,"eccentricity":0.0002345,"inclination_deg":86.3974,"raan_deg":314.0778,"arg_perigee_deg":92.8947,"mean_anomaly_deg":267.2517,"bstar":9.0366e-6,"rev_number":48352,"period_min":100.40317298514,"perigee_km":775.98954393674,"apogee_km":779.34561628481,"semimajor_km":7155.8045801108,"source":"CELESTRAK","updated_at":"2026-09-20T09:00:36.323255Z"}}